EHI
0 0 0 0 0 0 0 0 0 0 0 0 1 5 8 9 8 5 2 2 2 3 5 7 8 5 3 2 2 1 0 1 1 1 0 1 2 3 3 1 0 0 0
0 0 0 0 0 0 0 0 0 0 1 1 2 4 6 8 8 6 4 2 2 3 4 6 6 5 3 1 1 0 0 1 1 0 0 0 1 1 1 0 0 0 0
0 0 0 0 0 1 1 0 0 1 2 3 3 4 5 6 7 8 7 5 4 5 6 5 5 4 3 1 1 0 1 1 0 0 0 0 0 0 1 1 1 1 1
0 0 0 0 0 1 1 0 0 2 4 4 4 5 5 5 5 7 7 6 6 7 6 4 3 3 3 2 2 1 1 1 0 0 0 0 0 0 1 1 1 2 3
0 0 0 0 0 1 1 0 0 1 3 4 5 6 6 4 3 5 5 5 4 5 4 2 1 2 4 4 3 2 1 0 0 0 0 0 0 0 1 1 2 4 5
0 0 0 0 0 0 0 0 0 0 1 2 3 4 4 2 1 2 3 3 2 2 1 1 1 3 4 4 3 3 2 0 0 0 0 0 0 0 0 0 2 4 4
0 0 0 0 0 0 0 0 0 0 0 0 1 1 1 1 1 1 1 1 1 1 1 2 2 3 4 3 3 2 1 0 0 0 0 0 0 0 0 0 1 1 2
0 0 0 0 0 0 1 1 2 1 0 0 0 0 0 1 2 2 2 1 1 2 2 1 1 2 2 2 2 1 0 0 0 0 0 0 0 0 1 1 1 0 1
0 0 0 0 0 1 2 3 3 2 1 0 0 0 0 1 2 2 2 1 1 2 1 0 0 1 1 1 2 2 1 0 0 0 0 0 0 1 2 2 2 1 1
0 0 0 0 0 1 2 3 3 2 1 0 0 0 0 0 1 1 1 0 0 0 0 1 1 1 1 2 3 2 1 0 0 0 0 0 1 2 3 3 2 1 1
0 0 0 0 0 0 1 2 2 1 0 0 0 0 0 0 0 0 0 0 0 0 0 1 2 2 2 3 3 2 1 0 0 0 0 0 1 3 3 2 1 0 0
0 0 0 0 0 0 0 1 1 0 0 0 0 0 0 0 0 0 0 0 0 0 0 1 1 1 1 1 1 1 0 0 0 0 0 1 2 2 2 1 0 0 0
0 0 0 0 0 0 0 0 0 0 0 0 0 0 0 0 0 0 0 0 0 0 0 0 0 0 0 0 0 0 0 0 0 0 0 1 1 1 0 0 0 0 0
0 0 0 1 1 0 0 0 0 0 0 0 0 0 0 0 0 0 0 0 0 0 0 0 0 0 0 0 0 0 0 0 0 0 0 0 0 0 0 0 0 0 0
0 0 1 2 2 1 0 0 0 0 0 0 0 0 0 0 0 0 0 0 0 0 0 0 0 0 0 0 0 0 0 0 0 0 0 0 0 0 0 0 0 0 1
0 0 1 2 3 2 1 0 0 0 0 0 0 0 0 0 0 0 0 0 0 0 0 0 0 0 0 0 0 0 0 0 0 0 0 0 0 0 0 0 0 0 1
0 0 1 2 3 3 2 1 1 0 0 0 0 0 0 0 0 0 0 0 0 0 0 0 0 0 0 0 0 0 0 0 0 0 0 0 0 0 0 0 0 0 1
0 0 0 1 1 2 2 2 1 0 0 0 0 0 0 0 0 0 0 0 0 0 0 0 0 0 0 0 0 0 0 0 0 0 0 0 0 0 0 0 0 0 0
0 0 0 0 1 1 1 1 1 0 0 0 0 0 0 0 0 0 0 0 0 0 0 0 0 0 0 0 0 0 0 0 0 0 0 0 0 0 0 0 0 0 0
0 0 0 0 0 0 0 0 0 0 0 0 0 0 0 0 0 0 0 0 0 0 0 0 0 0 0 0 0 0 0 0 0 0 0 0 0 0 0 0 0 0 0
0 0 0 0 0 0 0 0 0 0 0 0 0 0 0 0 0 0 0 0 0 0 0 0 0 0 0 0 0 0 0 0 0 0 0 0 0 0 0 0 0 0 0
0 0 0 0 0 0 0 0 0 0 0 0 0 0 0 0 0 0 0 0 0 0 0 0 0 0 0 0 0 0 0 0 0 0 0 0 0 0 0 0 0 0 0
0 0 0 0 0 0 0 0 0 0 0 0 0 0 0 0 0 0 0 0 0 0 0 0 0 0 0 0 0 0 0 0 0 0 0 0 0 0 0 0 0 0 0
0 0 0 0 0 0 0 0 0 0 0 0 0 0 0 0 0 0 0 0 0 0 0 0 0 0 0 0 0 0 0 0 0 0 0 0 0 0 0 0 0 0 0
0 0 0 0 0 0 0 0 0 0 0 0 0 0 0 0 0 0 0 0 0 0 0 0 0 0 0 0 0 0 0 0 0 0 0 0 0 0 0 0 0 0 0
0 0 0 0 0 0 0 0 0 0 0 0 0 0 0 0 0 0 0 0 0 0 0 0 0 0 0 0 0 0 0 0 0 0 0 0 0 0 0 0 0 0 0
Wind_Speed
0 1 6 7 8 8 8 9 9 10 10 11 11 11 11 11 12 11 11 11 11 11 11 10 9 9 9 9 9 9 9 8 8 7 6 5 5 6 6 6 5 3 6
4 2 6 8 9 8 9 9 10 10 10 11 11 11 11 11 11 11 11 12 12 12 11 10 10 9 9 9 9 9 8 8 8 7 6 4 5 5 6 6 6 4 6
5 3 5 8 9 9 9 9 10 10 10 11 11 10 11 11 11 11 11 12 12 12 11 11 10 10 10 9 9 9 9 9 8 7 6 2 3 5 5 5 6 6 5
6 4 5 8 9 9 10 10 10 10 10 10 11 11 11 11 11 11 11 12 12 12 11 11 11 10 10 10 10 9 9 9 8 7 3 2 2 5 5 5 5 6 5
6 4 5 9 9 9 9 10 10 10 10 10 10 11 11 11 11 11 10 11 11 11 11 11 11 11 11 11 10 10 10 10 9 6 3 2 1 4 5 5 5 5 5
5 4 6 9 9 9 10 10 10 10 10 10 10 11 11 11 11 11 10 10 10 11 11 10 10 10 10 10 10 10 10 9 7 3 3 2 1 4 5 5 5 5 5
5 4 5 9 9 9 9 9 9 10 10 10 10 10 11 11 11 10 10 10 10 10 10 10 10 10 10 10 10 10 10 9 4 3 3 2 2 4 5 5 6 5 5
6 5 5 8 9 9 9 9 9 9 9 10 10 10 10 10 10 10 10 9 9 10 10 10 10 10 10 10 10 10 9 7 5 4 2 2 4 5 6 6 6 6 6
6 5 3 3 5 7 9 8 9 9 9 9 9 9 9 9 9 9 9 9 9 9 9 9 9 9 10 11 11 12 12 11 5 3 4 2 4 6 6 6 6 7 7
4 5 4 3 3 3 4 7 8 8 9 8 8 8 8 8 8 8 7 8 8 8 8 8 8 9 10 11 11 12 11 9 5 4 3 3 7 7 7 7 7 7 7
5 4 4 3 3 3 3 5 5 6 6 6 6 7 6 3 3 3 5 6 7 7 7 8 8 9 10 10 11 11 8 4 4 3 3 7 9 9 8 8 7 7 8
5 5 4 4 4 3 3 3 2 2 2 2 2 3 2 2 2 3 4 5 5 6 6 7 7 8 7 4 6 7 4 4 4 3 3 8 9 10 10 9 9 8 9
6 6 5 5 4 4 2 2 1 1 2 2 2 2 2 2 2 2 2 3 3 4 3 4 4 3 4 3 3 3 4 4 3 2 4 9 10 10 10 10 9 8 9
6 5 6 6 5 4 3 2 2 2 2 1 1 3 3 2 2 1 1 1 2 2 2 2 2 3 4 4 5 5 4 3 3 2 4 9 10 10 10 10 10 9 9
6 5 6 7 6 5 4 2 3 2 2 2 2 2 3 3 2 1 1 1 1 1 1 2 3 4 4 4 4 5 4 4 4 3 3 8 9 10 10 10 9 10 9
6 6 5 7 7 6 4 3 3 3 2 2 2 3 3 3 2 2 2 2 1 1 2 2 3 3 3 3 4 4 4 4 4 4 3 5 9 9 9 9 9 9 9
6 6 6 7 6 6 5 4 3 3 3 3 2 3 4 3 3 3 2 2 1 2 3 3 4 3 4 4 4 3 3 3 3 4 4 4 4 8 9 9 9 9 10
6 6 6 7 7 6 5 4 3 3 3 2 2 2 4 4 4 3 3 2 2 2 3 3 3 3 3 3 3 3 3 3 3 3 4 4 4 4 6 10 9 9 10
7 7 6 6 7 6 5 4 3 3 3 2 2 2 3 4 4 4 3 2 2 3 3 3 3 3 3 3 3 3 3 3 3 4 3 4 4 4 3 6 9 9 9
6 6 6 6 6 5 4 4 3 3 2 2 2 3 4 3 4 4 3 3 3 3 3 3 3 3 2 2 3 4 3 3 3 3 3 3 3 4 4 4 4 5 9
5 6 6 6 5 5 4 3 3 2 2 1 1 3 4 4 4 4 3 3 3 3 3 3 3 3 2 2 3 3 4 4 4 3 2 3 3 3 3 3 3 3 3
4 5 5 6 6 5 4 4 3 3 2 2 1 2 3 4 4 4 4 3 3 3 3 3 3 2 1 1 2 2 2 4 4 4 3 2 2 2 3 3 3 3 3
4 5 5 5 5 5 5 4 3 3 2 2 1 1 1 3 3 3 4 3 3 3 3 3 3 4 2 0 1 3 3 1 1 3 3 2 2 2 1 2 2 2 2
4 4 5 5 5 4 5 6 6 4 3 2 2 1 1 2 2 3 3 3 3 2 3 3 3 3 3 1 0 1 2 3 2 0 2 2 2 2 1 1 1 1 2
4 4 5 5 5 5 5 6 6 4 3 2 2 2 2 1 2 3 3 3 3 2 3 2 2 3 2 3 2 1 1 1 2 3 1 2 2 2 1 1 0 1 1
3 4 4 5 4 4 4 5 5 6 5 4 3 2 1 1 1 2 3 3 3 3 3 3 3 3 2 2 2 2 2 2 2 2 2 1 1 2 1 1 1 1 1
Wind_Direction
142 151 101 96 91 84 81 83 84 83 81 79 77 75 74 77 80 80 81 79 81 90 92 89 88 89 89 91 96 95 97 96 97 96 96 103 107 114 120 119 111 106 111
152 128 106 99 94 90 87 88 88 86 85 82 80 78 77 78 79 81 83 82 81 84 84 84 83 83 84 90 95 94 94 98 97 89 82 88 100 107 114 116 117 113 116
132 121 110 103 97 92 91 93 92 89 89 87 84 83 81 81 80 79 82 83 83 83 82 80 79 79 81 85 88 88 89 93 95 84 71 62 91 107 113 115 115 110 111
132 126 114 108 101 95 92 93 94 91 92 91 89 87 86 85 84 81 80 82 82 82 81 79 77 77 79 79 79 82 85 85 84 76 63 61 84 106 113 115 116 115 110
129 128 121 112 105 99 94 94 94 93 92 92 91 89 88 88 88 85 82 82 82 83 83 81 77 78 77 75 74 78 80 79 75 64 62 58 74 108 112 110 111 111 107
131 130 127 117 110 103 98 97 98 96 95 94 93 92 90 89 88 89 87 83 84 84 83 82 79 75 73 71 71 75 78 74 65 53 57 65 81 102 106 101 105 106 103
137 135 131 123 117 112 106 102 100 98 97 95 94 94 91 90 90 91 90 87 87 88 85 81 79 74 71 68 71 77 77 69 62 56 57 68 93 106 104 96 99 101 98
142 137 131 130 125 120 114 109 104 101 98 95 95 96 94 93 91 91 91 89 90 88 86 83 81 74 68 66 68 71 67 64 63 61 55 59 91 100 101 96 95 99 98
139 134 130 134 129 129 124 118 110 106 103 98 98 99 96 92 92 92 88 88 90 88 87 85 82 76 71 69 69 68 64 61 52 49 60 50 84 92 96 97 94 91 91
129 132 136 139 131 124 125 126 116 111 106 102 99 99 96 93 90 90 86 86 89 89 88 85 81 77 73 72 73 69 62 55 46 43 36 57 74 86 90 90 91 90 89
141 143 145 147 141 135 142 136 122 115 111 104 95 96 91 75 73 78 81 83 86 87 85 84 82 78 72 71 73 68 59 46 43 41 38 64 71 75 80 83 89 89 86
159 161 157 160 158 152 149 122 110 110 105 94 88 90 88 81 67 74 68 72 73 73 70 75 75 70 66 65 65 62 54 48 44 37 49 65 69 69 68 70 77 86 86
162 159 163 167 161 160 143 131 118 106 104 98 96 97 93 80 67 60 55 50 44 50 46 55 56 56 62 67 68 60 57 54 41 32 47 61 66 67 66 66 70 83 84
155 162 163 166 159 156 139 137 131 124 121 119 115 114 106 94 82 79 65 51 40 37 47 55 63 60 66 73 77 70 59 55 43 34 47 60 64 66 68 67 68 81 82
158 165 161 159 158 152 143 142 132 136 141 144 127 123 115 112 113 101 71 56 43 47 75 78 77 78 74 71 74 76 63 55 51 46 41 60 65 67 68 67 68 74 80
167 166 156 155 156 148 145 140 140 141 138 132 128 138 130 125 120 108 90 72 51 57 81 89 91 93 82 78 75 74 71 60 52 49 43 48 56 60 63 67 71 71 76
168 161 155 155 154 148 145 146 140 143 137 134 137 139 133 130 128 117 101 82 64 69 78 80 74 80 82 77 72 71 71 63 58 51 46 40 43 51 58 65 71 70 75
164 159 158 152 151 149 144 143 137 140 133 133 136 133 132 132 130 118 107 97 85 82 81 85 77 74 71 69 67 61 61 63 60 57 50 46 41 39 44 55 62 67 73
168 159 152 146 146 145 141 135 132 129 124 128 130 124 128 133 131 122 115 109 101 87 76 86 76 84 85 77 77 61 52 59 60 66 60 52 45 42 39 45 50 57 65
167 156 150 143 143 136 126 113 105 101 107 111 122 134 131 131 129 120 115 107 102 95 78 79 83 67 82 88 80 60 41 39 46 56 59 52 46 48 46 45 40 42 53
157 151 152 149 151 141 131 127 134 143 143 125 127 129 129 132 132 126 122 117 108 108 117 113 102 86 61 77 74 48 25 30 38 39 40 50 44 42 46 43 42 40 36
153 161 160 159 159 159 153 148 149 150 149 149 133 118 126 134 142 139 137 135 126 115 106 106 110 104 87 82 104 89 35 7 7 24 28 46 38 36 43 45 47 47 34
148 167 169 160 162 160 149 125 108 87 73 64 76 111 143 152 150 146 148 143 140 135 142 143 140 131 138 52 105 128 131 190 318 347 10 21 23 34 20 28 46 36 35
168 165 162 155 153 152 147 144 144 145 150 175 171 161 141 134 137 138 144 143 144 142 151 164 146 143 138 144 62 80 144 153 146 326 339 348 2 18 1 28 41 31 33
155 153 157 152 150 148 149 154 153 152 158 149 137 138 143 133 144 141 142 141 146 149 158 157 143 142 143 153 161 153 106 84 116 140 237 319 348 337 342 347 21 17 22
137 136 143 144 146 147 146 154 161 161 158 149 158 162 162 148 149 150 146 152 156 154 161 164 156 154 157 153 156 154 152 154 173 153 176 234 283 301 316 328 337 335 334